Content
SEND FEEDBACK

Daily
Averages
Monthly
Summary
France

LE HAVRE, FRANCE


Home > Europe > France
Elevation: 338 feet     Latitude: 49 31N     Longitude: 000 04E

WEATHER
 
SELECT A DAY
Number of Records: 176,802;   Date Range: 3/4/97 - 8/31/14
 
SHARE

PRINT THIS DATA

[ ← Previous Day ]
WEATHER ALMANAC - MAY 4, 2013
[ Next Day → ]
[ °C ]   °F
Weather ElementAverageHighLow
Temperature50.5 °F55.4 °F (2:00 pm)46.4 °F (2:00 am)
Dewpoint45.3 °F48.2 °F (4:00 pm)42.8 °F (7:30 am)
Humidity82.7 %94 % (11:00 pm)72 % (12:30 pm)
Barometer30.15 in30.18 in (11:30 am)30.12 in (1:00 am)
Wind Speed11.8 mph15 mph (9:30 pm)
Weather ElementAverage
Visibility6.2 mi
Wind DirectionWSW (249.4 °)

Weather ElementTotal
Precipitation---
Heating Degree Days14.1 (Base 65)
Growing Degree Days0.9 (Base 50)
Averaged from 47 records on May 4, 2013
WEATHER CONDITIONS BREAKOUT
WIND DIRECTION BREAKOUT
WEATHER BY HOUR - MAY 4, 2013
[ °C ]   °F
Local TimeTemperatureDewpointHumidityBarometerVisibilityWind DirectionWind SpeedGust SpeedPrecipitationEventsConditions
12:30 AM48.2 °F44.6 °F87 %30.15 in6.2 miWest (270°)10.4 mph
1:00 AM48.2 °F44.6 °F87 %30.12 in6.2 miWest (260°)10.4 mph
1:30 AM48.2 °F44.6 °F87 %30.12 in6.2 miWest (260°)11.5 mph
2:00 AM46.4 °F44.6 °F93 %30.12 in6.2 miWest (260°)11.5 mph
2:30 AM46.4 °F44.6 °F93 %30.12 in6.2 miWSW (250°)11.5 mph
3:00 AM46.4 °F44.6 °F93 %30.12 in6.2 miWSW (250°)10.4 mph
3:30 AM46.4 °F44.6 °F93 %30.12 in6.2 miWSW (250°)10.4 mph
4:00 AM46.4 °F44.6 °F93 %30.12 in6.2 miWSW (240°)11.5 mphPartly Cloudy
4:30 AM46.4 °F44.6 °F93 %30.12 in6.2 miWSW (240°)11.5 mphScattered Clouds
5:00 AM46.4 °F44.6 °F93 %30.12 in6.2 miWSW (250°)11.5 mphPartly Cloudy
5:30 AM46.4 °F44.6 °F93 %30.12 in6.2 miWSW (250°)11.5 mph
6:00 AM46.4 °F44.6 °F93 %30.12 in6.2 miWSW (250°)12.7 mph
6:30 AM46.4 °F44.6 °F93 %30.12 in6.2 miWest (260°)12.7 mphOvercast
7:00 AM48.2 °F44.6 °F87 %30.12 in6.2 miWest (260°)12.7 mphOvercast
7:30 AM48.2 °F42.8 °F82 %30.12 in6.2 miWest (270°)11.5 mphOvercast
8:00 AM48.2 °F42.8 °F82 %30.12 in6.2 miWest (270°)11.5 mphOvercast
8:30 AM48.2 °F42.8 °F82 %30.15 in6.2 miWest (260°)11.5 mphOvercast
9:00 AM50.0 °F42.8 °F76 %30.15 in6.2 miWest (260°)10.4 mphOvercast
9:30 AM50.0 °F44.6 °F82 %30.15 in6.2 miWSW (250°)8.1 mphOvercast
10:00 AM50.0 °F44.6 °F82 %30.15 in6.2 miWSW (240°)9.2 mphOvercast
10:30 AM50.0 °F44.6 °F82 %30.15 in6.2 miWSW (240°)11.5 mphOvercast
11:00 AM50.0 °F44.6 °F82 %30.15 in6.2 miSW (230°)11.5 mphOvercast
11:30 AM51.8 °F44.6 °F76 %30.18 in6.2 miSW (230°)10.4 mphOvercast
12:00 PM51.8 °F44.6 °F76 %30.18 in6.2 miSW (220°)10.4 mphOvercast
12:30 PM53.6 °F44.6 °F72 %30.15 in6.2 miSW (220°)10.4 mphOvercast
1:00 PM53.6 °F44.6 °F72 %30.15 in6.2 miSW (220°)11.5 mphOvercast
1:30 PM53.6 °F44.6 °F72 %30.15 in6.2 miSW (230°)12.7 mphOvercast
2:00 PM55.4 °F46.4 °F72 %30.15 in6.2 miWSW (240°)11.5 mphOvercast
2:30 PM53.6 °F46.4 °F77 %30.18 in6.2 miWSW (250°)12.7 mphOvercast
3:00 PM53.6 °F46.4 °F77 %30.15 in6.2 miWSW (250°)11.5 mphOvercast
3:30 PM53.6 °F46.4 °F77 %30.15 in6.2 miWSW (240°)12.7 mphOvercast
4:00 PM55.4 °F48.2 °F77 %30.15 in6.2 miWSW (250°)12.7 mphMostly Cloudy
4:30 PM55.4 °F48.2 °F77 %30.15 in6.2 miWSW (250°)13.8 mphMostly Cloudy
5:00 PM53.6 °F46.4 °F77 %30.15 in6.2 miWSW (250°)12.7 mphOvercast
5:30 PM53.6 °F46.4 °F77 %30.15 in6.2 miWSW (240°)11.5 mph
6:00 PM53.6 °F46.4 °F77 %30.18 in6.2 miWSW (240°)12.7 mph
6:30 PM53.6 °F46.4 °F77 %30.15 in6.2 miWSW (240°)11.5 mph
7:00 PM53.6 °F46.4 °F77 %30.15 in6.2 miWSW (250°)11.5 mphMostly Cloudy
7:30 PM51.8 °F46.4 °F82 %30.15 in5.0 miWest (260°)12.7 mphOvercast
8:00 PM51.8 °F44.6 °F76 %30.15 in6.2 miWest (260°)12.7 mphOvercast
8:30 PM51.8 °F44.6 °F76 %30.15 in6.2 miWest (260°)13.8 mphOvercast
9:00 PM51.8 °F46.4 °F82 %30.15 in6.2 miWSW (250°)13.8 mphOvercast
9:30 PM51.8 °F46.4 °F82 %30.15 in6.2 miWest (260°)15.0 mph
10:00 PM51.8 °F46.4 °F82 %30.18 in6.2 miWest (260°)13.8 mph
10:30 PM50.0 °F46.4 °F87 %30.18 in6.2 miWest (260°)12.7 mph
11:00 PM50.0 °F48.2 °F94 %30.18 in6.2 miWest (260°)11.5 mph
11:30 PM50.0 °F46.4 °F87 %30.18 in6.2 miWest (260°)11.5 mphOvercast
Hourly data recorded from LFOH, located miles away from Le Havre, France







STORIES FROM OUR PARTNERS